Vertical_Velocity
-1 -1 -1 -0 1 -1 1 -0 -1 1 0 1 1 -1 0 -0 0 1 1 -1 -2 -0 1 1 1 -1 0 0 -2 -0 -0 -0 -1 -1 -1 -1 -1 -1 -1 -1 -0 -0 1
-0 -1 -2 -0 1 1 1 0 0 -0 -0 -1 1 -1 -1 -1 -1 -0 -1 -1 -2 -1 0 0 1 -1 0 -0 -0 -1 0 -1 -1 -1 -1 -0 -1 -0 0 0 -1 -1 -2
-0 -1 -1 -0 -2 1 0 1 0 1 -0 -1 -0 -0 -1 -0 2 2 -1 -1 0 1 1 1 0 0 0 0 0 1 1 -1 -1 -1 -0 -0 -0 -0 -0 1 -1 -0 -0
-0 -1 0 -1 -2 0 0 1 1 1 1 1 0 -0 -0 -0 1 2 1 -0 1 1 0 1 0 0 0 0 -0 0 1 -0 0 -0 -1 -1 -1 -2 0 0 0 1 1
1 -0 -0 -1 -1 -1 1 0 1 3 -1 -1 0 -0 -1 1 -1 -1 -0 2 1 2 0 1 0 1 1 0 0 0 0 1 -0 -0 0 2 -2 -1 -1 -1 -0 0 -0
1 1 -1 1 0 -1 -1 0 0 1 0 3 -0 -1 -1 -0 0 -0 -0 0 0 -0 1 0 1 1 0 -0 1 0 -0 -0 0 -0 0 -1 -0 -2 -1 -1 -1 -1 0
-0 0 1 1 1 0 3 1 -0 1 -1 0 -1 -0 -1 -1 -2 -1 1 -1 0 -0 -1 0 -0 -0 -0 -1 -1 -0 -1 1 -1 0 0 1 1 0 0 -0 0 1 0
1 -1 1 2 0 -1 3 2 1 1 1 1 1 1 2 1 1 -1 0 1 1 1 -1 -1 -1 -1 0 1 0 0 2 1 0 0 -0 0 -0 1 -1 1 -0 -1 0
0 1 -1 2 -1 -1 2 2 1 1 1 -1 0 -0 1 2 2 2 0 -0 1 2 -1 -0 -1 -0 -0 -0 0 1 -1 -1 0 0 0 -0 -0 -1 -3 0 -0 0 0
1 1 -1 3 8 0 1 1 3 3 1 1 2 1 0 1 2 1 0 2 0 2 1 0 -1 -2 1 0 0 0 2 1 0 0 0 -2 -1 -1 -1 -0 0 1 -0
3 1 3 2 1 6 7 -1 1 1 -1 1 2 3 1 1 1 1 2 0 2 2 1 0 -1 -1 -1 0 0 -0 2 -0 0 -1 0 0 -2 0 -1 -1 -1 -1 -0
0 3 0 1 6 6 11 6 -2 -0 1 2 0 1 2 2 2 1 1 2 0 2 2 1 -2 1 0 -0 1 -0 1 0 1 -1 0 -0 2 -0 0 -1 -0 -1 -1
-2 1 -0 -4 1 5 11 11 13 -3 -0 2 1 2 1 -0 2 2 1 1 1 2 2 2 3 -1 2 0 1 -1 2 -0 -1 -1 0 1 0 1 -0 -1 -0 -0 0
-2 -0 2 0 -1 -1 -1 5 9 9 7 -4 1 2 1 1 1 2 2 1 -0 3 3 1 1 0 1 1 3 -0 1 -0 0 -0 -0 1 -1 1 -0 -1 -0 1 1
-1 1 -1 -2 -0 0 -2 -1 5 -2 3 15 3 0 1 2 1 1 2 1 2 3 2 1 0 -0 1 2 3 1 -1 1 -0 1 -0 1 1 1 1 0 -0 -0 -0
1 2 2 3 -1 -1 -0 -1 1 -5 -1 16 -2 20 -6 0 1 2 1 1 2 5 1 1 2 2 2 1 3 3 1 0 1 -0 0 -0 -0 1 1 1 0 -0 -1
3 3 0 2 1 1 -2 -1 1 2 -7 21 -4 -4 -2 6 -1 0 0 1 1 3 1 -1 1 3 1 2 2 3 1 1 0 2 2 -1 1 1 -1 1 1 1 -0
-5 -3 -2 -2 -1 -0 1 1 -1 0 -0 -2 -5 -3 -7 16 5 -2 -3 0 1 2 2 1 1 3 3 2 4 6 2 1 0 1 1 1 -0 0 2 1 1 1 -1
-1 -0 -1 -3 -1 -2 -2 -1 -2 1 -0 -0 -1 23 14 -7 -2 18 6 -3 -1 1 3 1 1 1 6 3 3 4 4 1 1 2 0 2 1 2 2 2 1 1 1
-4 -6 -6 -2 -1 0 -3 -2 -1 -1 1 -2 -2 3 -2 10 2 3 2 12 2 -3 0 1 2 -0 5 4 3 2 6 2 2 1 -1 1 1 1 1 1 2 2 1
0 -0 -3 -2 -1 -4 -0 1 -2 -3 1 1 1 -2 -3 1 28 16 -5 20 -26 15 -3 6 3 2 -1 2 2 3 2 3 -0 -0 -0 0 0 1 1 2 1 0 0
-4 -5 1 -1 -2 -1 -4 -3 -3 -2 -3 -1 -1 -2 -1 5 5 -8 -6 12 8 12 -9 -4 1 8 3 1 -1 2 3 4 3 1 1 -0 -1 1 1 1 1 2 1
-3 -2 -6 -3 0 -2 -3 -1 1 -4 -2 -1 -0 1 1 0 1 -5 -1 20 -13 8 16 -4 5 1 3 4 9 -3 1 0 9 4 4 0 1 1 2 2 2 0 0
-1 -2 -0 1 -1 1 0 -3 -1 -0 -4 2 1 -2 2 6 -1 0 16 -4 10 18 -4 -9 -5 -3 3 4 7 5 3 4 -1 4 3 4 -1 1 2 -1 -1 -0 -0
-3 -2 1 -0 1 -3 -1 1 -4 -1 -1 3 -1 -2 -0 -2 -3 -0 -2 21 16 10 -6 -9 1 3 0 1 7 5 2 4 4 5 3 3 2 -1 -1 4 0 -0 4
-1 0 -3 -0 -2 -1 -1 -1 -2 -3 1 1 -0 1 3 1 1 -2 2 -2 6 -1 -17 -4 7 -1 7 3 5 3 -2 4 7 5 2 2 2 2 0 -2 2 4 0
Height
3129 3130 3131 3133 3134 3135 3135 3136 3137 3138 3140 3142 3144 3146 3148 3149 3149 3150 3151 3152 3152 3153 3153 3153 3152 3151 3152 3153 3153 3154 3155 3156 3157 3158 3159 3159 3159 3160 3161 3161 3161 3162 3162
3128 3129 3130 3132 3134 3135 3135 3136 3137 3138 3140 3142 3144 3146 3148 3149 3150 3150 3151 3152 3152 3152 3152 3153 3153 3153 3153 3154 3155 3156 3157 3157 3158 3159 3159 3159 3160 3161 3161 3162 3162 3162 3163
3128 3129 3130 3131 3132 3135 3136 3136 3138 3139 3140 3142 3143 3146 3148 3149 3151 3151 3151 3152 3153 3153 3153 3153 3154 3154 3155 3156 3156 3157 3158 3158 3158 3160 3160 3161 3161 3161 3162 3162 3163 3163 3163
3128 3129 3130 3131 3132 3134 3135 3136 3137 3139 3140 3142 3143 3145 3148 3149 3150 3152 3152 3153 3153 3153 3153 3154 3154 3155 3156 3156 3157 3158 3159 3159 3160 3160 3161 3162 3162 3162 3163 3164 3164 3164 3164
3129 3129 3130 3131 3132 3134 3135 3136 3137 3138 3140 3141 3143 3145 3147 3149 3150 3151 3152 3153 3154 3154 3154 3154 3155 3155 3156 3156 3157 3158 3159 3159 3160 3161 3161 3163 3162 3163 3164 3164 3164 3165 3164
3128 3129 3130 3131 3132 3133 3135 3136 3137 3138 3140 3142 3142 3143 3145 3147 3149 3150 3152 3153 3153 3154 3154 3155 3155 3156 3157 3157 3158 3158 3159 3160 3160 3161 3161 3162 3163 3163 3164 3164 3164 3164 3164
3127 3128 3130 3130 3131 3132 3134 3135 3136 3137 3139 3140 3141 3141 3143 3144 3147 3148 3150 3151 3152 3153 3154 3155 3155 3156 3157 3158 3158 3159 3159 3161 3161 3161 3162 3163 3163 3164 3164 3164 3165 3165 3165
3125 3126 3128 3129 3130 3131 3133 3134 3136 3136 3137 3138 3140 3141 3143 3143 3145 3146 3148 3149 3151 3152 3152 3154 3155 3156 3157 3158 3158 3159 3160 3161 3161 3162 3162 3163 3163 3164 3164 3165 3165 3164 3164
3123 3124 3126 3127 3128 3130 3132 3133 3134 3135 3136 3137 3138 3140 3141 3142 3144 3145 3146 3148 3149 3151 3151 3152 3153 3155 3156 3157 3159 3160 3160 3161 3162 3162 3163 3163 3164 3163 3163 3164 3164 3164 3164
3119 3121 3123 3124 3126 3127 3128 3129 3132 3133 3134 3135 3136 3138 3139 3140 3142 3143 3145 3146 3147 3149 3150 3151 3152 3153 3156 3157 3158 3159 3161 3161 3161 3162 3163 3163 3163 3164 3164 3164 3164 3164 3164
3114 3117 3119 3122 3123 3124 3125 3125 3127 3129 3131 3133 3135 3136 3137 3139 3140 3141 3143 3144 3145 3147 3148 3149 3150 3152 3154 3156 3157 3158 3159 3159 3160 3161 3162 3163 3163 3163 3163 3164 3164 3163 3163
3110 3112 3114 3117 3119 3120 3122 3123 3124 3126 3127 3130 3132 3133 3135 3137 3138 3139 3141 3142 3143 3145 3146 3146 3148 3150 3152 3153 3156 3157 3158 3159 3159 3160 3161 3161 3163 3163 3163 3163 3164 3163 3164
3106 3107 3110 3111 3114 3115 3117 3119 3121 3122 3124 3126 3128 3130 3132 3134 3136 3137 3139 3140 3141 3142 3143 3144 3146 3149 3151 3152 3153 3155 3157 3158 3158 3159 3160 3161 3162 3163 3163 3163 3163 3163 3163
3103 3102 3104 3107 3109 3111 3112 3113 3115 3118 3120 3122 3124 3126 3128 3130 3132 3134 3136 3137 3138 3140 3141 3141 3142 3146 3149 3150 3151 3153 3154 3155 3156 3157 3158 3159 3160 3161 3161 3161 3161 3162 3162
3100 3099 3099 3100 3102 3104 3106 3108 3110 3112 3114 3118 3120 3122 3124 3127 3129 3130 3132 3134 3135 3137 3138 3137 3139 3143 3146 3148 3149 3151 3152 3153 3154 3155 3157 3157 3158 3159 3159 3159 3160 3160 3160
3096 3096 3096 3096 3096 3097 3099 3102 3104 3106 3109 3111 3114 3117 3119 3122 3124 3126 3128 3130 3132 3134 3134 3135 3136 3139 3143 3145 3147 3148 3149 3150 3151 3153 3154 3155 3156 3157 3157 3157 3157 3157 3157
3092 3092 3091 3092 3092 3092 3093 3094 3097 3100 3103 3103 3108 3110 3112 3116 3119 3120 3122 3125 3127 3129 3130 3130 3133 3136 3138 3140 3143 3144 3146 3147 3148 3150 3152 3152 3153 3154 3154 3154 3154 3154 3154
3089 3088 3087 3087 3087 3087 3088 3088 3089 3092 3094 3097 3100 3103 3107 3108 3112 3114 3116 3119 3121 3123 3125 3126 3128 3132 3135 3137 3139 3141 3142 3143 3145 3146 3148 3149 3150 3151 3151 3151 3151 3151 3150
3084 3083 3081 3082 3082 3082 3082 3082 3082 3083 3085 3089 3092 3094 3098 3101 3104 3100 3106 3111 3114 3117 3120 3121 3123 3127 3131 3133 3135 3136 3138 3139 3141 3142 3144 3146 3147 3148 3148 3148 3148 3148 3147
3080 3078 3077 3076 3075 3075 3076 3076 3076 3078 3079 3081 3084 3086 3091 3092 3096 3097 3099 3097 3104 3110 3113 3116 3118 3121 3125 3128 3131 3132 3133 3134 3136 3137 3140 3142 3144 3144 3144 3145 3144 3144 3143
3075 3073 3070 3070 3069 3069 3068 3068 3070 3071 3073 3074 3076 3078 3082 3085 3079 3090 3093 3089 3095 3098 3105 3108 3111 3115 3119 3123 3125 3127 3129 3129 3131 3133 3135 3137 3139 3140 3141 3141 3141 3140 3139
3069 3067 3065 3063 3063 3062 3062 3063 3063 3064 3066 3067 3068 3069 3073 3075 3080 3083 3084 3087 3089 3095 3097 3099 3104 3109 3113 3117 3120 3124 3124 3126 3127 3129 3131 3133 3134 3136 3136 3136 3136 3135 3135
3063 3060 3059 3058 3056 3056 3056 3056 3057 3058 3058 3059 3061 3063 3066 3069 3073 3078 3081 3081 3083 3087 3088 3091 3097 3103 3108 3112 3115 3118 3121 3122 3125 3125 3127 3129 3130 3131 3132 3132 3132 3132 3131
3058 3054 3052 3051 3050 3050 3049 3050 3050 3051 3052 3054 3054 3054 3056 3061 3064 3068 3070 3076 3080 3080 3079 3083 3089 3095 3102 3105 3109 3112 3116 3119 3119 3122 3123 3124 3125 3127 3128 3128 3128 3128 3127
3052 3049 3046 3045 3044 3043 3043 3043 3044 3043 3045 3046 3046 3047 3049 3052 3055 3060 3064 3068 3069 3074 3075 3078 3079 3085 3091 3096 3103 3106 3110 3114 3116 3118 3118 3120 3121 3122 3124 3126 3126 3125 3124
3045 3042 3041 3039 3038 3036 3035 3035 3035 3036 3037 3038 3039 3040 3042 3045 3048 3052 3056 3061 3064 3067 3071 3073 3073 3076 3086 3088 3093 3098 3102 3107 3110 3112 3112 3114 3115 3117 3119 3120 3120 3118 3117